Timeline UpdatesTrip UpdatesNews PostsPvt Posts♥♥Travel TipsAdmin PostsConv PostsFollowed PostsChat RequestsBlog PostsPNR Posts

Disclaimer
Search
 
 
Tue Nov 25, 2014 03:08:18 ISTHomeTrainsΣChainsAtlasPNRForumGalleryNewsFAQTripsMembersLoginFeedback
No Recent News for this Train
Other Trains in the News **new
Latest...
.
Fri Nov 21, 2014 (12:44PM)
⇐ Return Journey: Train# 16031

16032/Andaman Express

Time-Table HAS CHANGED.
Nov 21 (12:44PM)
Change Departure Station:
Change Arrival Station:
Post a Train Travel TipPost a Train Travel Tip **new
Post a Comment/Question/Picture/VideoPost a Comment/Question/Picture/Video
Inaugural Run
Sun May 01, 1988
Pantry/Catering
✕ NO Pantry Car
✓ Catering Avbl
RSA - Rake Sharing
16031/16032/16093/16094/12755/12756 (renumbered 22613/22614) has RSA.
Rake/Coach Composition
LOCO-SLR-UR-UR-B1-S1-S2-S3-S4-S5-S6-S7-UR-UR-UR-SLR-HCPV-HCPV-HCPV
Loco
JAT-NDLS> TKD WDM3A/WDP3A NDLS-MAS> ED WAP4
News    PNR    Forum    Time-Table    Availability    Fare Chart    Map    Arr/Dep History    Trips    Gallery    ΣChains    X/O    Timeline    
Travel Time: 19h 40m    32 halts    Distance: 867 km    Avg Speed: 44 km/hr
Type: Mail/Express
Zone: SR/Southern
Departs @ 23:45
Platform# 2
  T  FS
Jammu Tawi/JAT 
Arrives @ 19:25 +1 night
Platform# 1
S  W  S
Morena/MRA 

32 halts. 142 intermediate Stations between Jammu Tawi and Morena

Show ALL intermediate Stations  Show Old Time-Table

#TrkCodeStation NameX/OArrivesAvgDepartsAvgHaltPFDay#KmSpeedElevZoneAddress
1/--/JATJammu Tawi (3)»  -23:45-210.065337mNRJammu 180002, Jammu and Kashmir
2/--/SMBXSamba (2)  00:15-00:17-2m1232.764365mNRDist. Samba, Jammu and Kashmir
3/--/KTHUKathua (2)  00:58-01:00-2m2276.350396mNRdistt. kathua, Jammu and Kashmir
4/--/PTKCPathankot Cantt (3)  01:28-01:33-5m1299.457328mNRPathankot By Pass Ph:0186-2251594, Punjab
5/--/MEXMukerian (3)  02:15-02:17-2m12139.353257mNRMukerian distt. hosiharpur, Punjab
6/--/DZADasuya (2)X  02:34-02:36-2m12154.358251mNRDasuya distt. hoshiarpur, Punjab
7/--/TDOTanda Urmar (3)  02:52-02:54-2m22169.762239mNRUrmar Tanda, Punjab
8/--/JRCJalandhar Cantt. Junction (3)X  03:35-03:40-5m32211.954239mNRNear Rama Mandi, Punjab
9/==/PGWPhagwara Junction (3)  03:58-04:00-2m12228.275245mNRPhagwara, Punjab
10/==/PHRPhillaur Junction (3)X  04:18-04:20-2m12250.826246mNRPhillaur, Punjab
11/==/LDHLudhiana Junction (7)X  04:50-05:00-10m42263.933246mNRLudhiana 141001, Punjab
12|--|QRPKila Raipur (1)  05:32-05:34-2m12281.651262mNRDelhon Pakhowal Rd, Punjab
13|--|AHHAhmadgarh (1)  05:43-05:45-2m12289.343256mNRAhmedgarh, Punjab
14|--|METMalerkotla (2)  06:13-06:15-2m12309.150248mNRMalerkotla., Punjab
15|--|DUIDhuri Junction (4)X  06:35-07:00-25m--2326.064248mNRDhuri, Punjab
16|--|SAGSangrur (2)X  07:15-07:17-2m12342.035239mNRSangrur, Punjab
17|--|SFMSunam (1)  07:39-07:41-2m12354.871235mNRSunam, Punjab
18|--|LHALehra Gaga (1)  07:59-08:01-2m12376.119227mNRSangrur, Punjab
19|-=|JHLJakhal Junction  08:55-09:00-5m--2393.067225mNRJakhal, Haryana
20|==|TUNTohana (2)  09:11-09:13-2m--2405.261232mNRTohana, Haryana
21|==|NRWNarwana Junction (4)X  09:38-09:40-2m--2430.765235mNRKKDE, Haryana
22|==|UCAUchana  09:54-09:56-2m--2445.958225mNRDistrict Jind, Haryana
23|==|BZOBarsola  10:06-10:08-2m--2455.534224mNRDistrict Jind, Haryana
24|==|JINDJind Junction (3)X  10:24-10:27-3m--2464.667222mNRJind 126102, Haryana
25|==|JNAJulana  10:50-10:52-2m--2490.378226mNRJulana, Haryana
26|==|ROKRohtak Junction (3)  11:45 11:16-11:47 11:18-2m12521.769220mNRRohtak, Haryana
27/==/BGZBahadurgarh  12:19 11:53-12:21 11:55-2m--2562.029220mNRBahadurgarh, Haryana
28/==/SSBShakur Basti  12:56 12:36-12:58 12:38-2m--2581.913216mNRPitampura, Delhi NCT
29/==/NDLSNew Delhi (16)  13:35 13:30-14:30 14:15-55 45m72592.828215mNRNew Delhi 110002, Delhi NCT
30/==/NZMDelhi Hazrat Nizamuddin (7)X  14:45 14:31-14:47 14:33-2m42600.242209mNRNew Delhi 110013, Delhi NCT
31/==/FDBFaridabad (4)  15:13 15:03-15:15 15:05-2m32620.949206mNRold Faridabad, Haryana
32/==/MTJMathura Junction (10)XO  17:25-17:30-5m12734.154179mNCRMathura, Uttar Pradesh
33/==/AGCAgra Cantt. (6)X  18:30-18:35-5m12787.895174mNCRAgra, Uttar Pradesh
34/==/MRAMorena (3)•  19:28 19:25-19:30 19:27-2m12867.251176mNCRMorena, Madhya Pradesh
35/==/GWLGwalior Junction (4)X  20:12-20:15-3m12905.873214mNCRGwalior, Madhya Pradesh
36/==/JHSJhansi Junction (7)  22:00 21:35-22:08 21:45-8 10m321003.567259mNCRJhansi, Uttar Pradesh
37/==/BABBabina (3)  22:43 22:08-22:45 22:10-2m121029.044285mNCRBabina, Uttar Pradesh
38/==/BINABina Junction (5)X  01:05-01:10-5m231156.876414mWCRJn Pt - KATNI/GUNA/ BPL/JHS, Madhya Pradesh
39/==/BPLBhopal Junction (6)X  02:55 03:00-03:00 03:05-5m131295.339497mWCRBhopal, Madhya Pradesh
40/==/ETItarsi Junction (7)X  05:25-05:30-5m--31387.173329mWCRItarsi 461111, Madhya Pradesh
41/==/GDYAGhoradongri (3)  06:28-06:30-2m--31457.448 CRBetul, Madhya Pradesh
42/==/BZUBetul (3)  07:15-07:18-3m--31493.353644mCRBetul, Madhya Pradesh
43/==/AMLAAmla Junction (5)  07:44-07:46-2m--31516.381733mCRAmla Distt. Betul, Madhya Pradesh
44/==/MTYMultai (2)  08:03-08:05-2m--31539.157762mCRMultai, Madhya Pradesh
45/==/PARPandhurna (2)XO  08:48-08:50-2m--31579.960481mCRDistt: Chhindwara, Madhya Pradesh
46/==/NGPNagpur Junction (8)  10:35-10:45-10m231684.274314mCRNagpur 440001, Maharashtra
47/==/SEGMSewagram Junction (5)  11:47-11:49-2m--31760.474279mCRWardha, Maharashtra
48/==/HGTHinganghat (3)  12:16-12:18-2m--31793.678228mCRHinganghat, Maharashtra
49/==/WRRWarora (2)  12:48-12:50-2m--31832.753214mCRWarora, Maharashtra
50/==/MJRIMajri Junction (3)  13:04-13:06-2m231845.170198mCRDist. Chandrapur, Maharashtra
51/==/CDChandrapur Maharashtra (3)X  13:35-13:38-3m--31879.016194mCRChandrapur 442401, Maharashtra
52/==/BPQBalharshah Junction (5)  14:30-14:40-10m--31892.871188mCRBallarpur. Ph : 07172 - 240341, Maharashtra
53/==/SKZRSirpur Kaghaznagar (3)X  15:39-15:41-2m231962.682181mSCRAdilabad Dist., Telangana
54/==/BPABellampalli (3)  16:09-16:10-1m232001.079205mSCRTel:.08735 223298, Telangana
55/==/MCIManchiryal (3)X  16:25-16:26-1m232020.982159mSCRAdilabad Dist., Telangana
56/==/RDMRamagundam (3)  16:36-16:37-1m232034.681170mSCRKarimnagar Dist. Ph : 08728 - 255237, Telangana
57/==/PDPLPeddapalli Junction (2)  16:50-16:51-1m232052.285228mSCRKarimnagar Dist., Telangana
58/==/JMKTJammikunta (2)  17:19-17:20-1m232091.634236mSCRKarimnagar Dist., Telangana
59/==/WLWarangal (3)X  18:38-18:43-5m132135.880271mSCRWarangal., Telangana
60/==/KDMKesamudram (2)  19:17-19:18-1m132181.081223mSCRWarangal Dist., Telangana
61/==/MABDMahbubabad (2)X  19:29-19:30-1m132195.949200mSCRWarangal Dist., Telangana
62/==/DKJDornakal Junction (3)  20:00-20:01-1m232220.381153mSCRWarangal District, Telangana
63/==/KMTKhammam (2)X  20:18-20:20-2m132243.393118mSCRKhammam 507001, Telangana
64/==/MDRMadhira (2)X  20:49-20:50-1m132288.11461mSCRKhammam Dist., Telangana
65/==/BZAVijayawada Junction (10)X  00:40-01:00-20m842343.73624mSCRVijayawada 520001, Andhra Pradesh
66/-=/NGNTNew Guntur (1)  01:50-01:52-2m142373.82130mSCRGuntur City, Andhra Pradesh
67/--/TELTenali Junction (5)  03:04-03:05-1m--42398.87816mSCRTel: 08644-227834, Andhra Pradesh
68/==/NDONidubrolu (3)X  03:22-03:24-2m--42420.8699mSCRNidubrolu, Andhra Pradesh
69/==/BPPBapatla (3)  03:42-03:44-2m--42441.48210mSCRBapatla, Andhra Pradesh
70/==/CLXChirala (4)X  03:55-03:57-2m--42456.4698mSCRChirala, Andhra Pradesh
71/==/OGLOngole (3)X  04:40-04:42-2m342505.87712mSCROngole, Andhra Pradesh
72/==/SKMSingarayakonda (2)  05:04-05:06-2m242534.010326mSCRSingarayakonda, Andhra Pradesh
73/==/KVZKavali (4)  05:28-05:30-2m242571.88221mSCRKavali, Andhra Pradesh
74/==/BTTRBitragunta (2)X  05:42-05:44-2m242588.26615mSCRBitragunta, Andhra Pradesh
75/==/NLRNellore (4)  06:15-06:17-2m342622.63021mSCRNellore, Andhra Pradesh
76/==/GDRGudur Junction (3)  07:35-07:40-5m142661.07219mSCRGudur, Andhra Pradesh
77/==/NYPNayadupeta (3)X  08:03-08:05-2m242688.79133mSRNayudupeta, Andhra Pradesh
78/==/SPESullurupeta (3)  08:23-08:25-2m242715.9479mSR524121., Andhra Pradesh
79/==/MASChennai Central (12)  10:10----42798.4-9mSRChennai 600003, Tamil Nadu
Scroll to Top
Scroll to Bottom